����,���ϕ���(m/s),���ϕ���,�ő�u�ԕ���(m/s),�ő啗��������,�C��(��),���x(%),10���Ԉړ��ώZ�J��(mm),1���Ԉړ��ώZ�J��(mm),���J��(mm),�݌v�J��(mm)
2022-05-09T00:00:00+09:00,2.1,��,4.3,���쓌,10.4,63.1,0,0,0,0
2022-05-09T00:01:00+09:00,2.1,��,4.3,���쓌,10.4,63.5,0,0,0,0
2022-05-09T00:02:00+09:00,2.2,��,4.3,���쓌,10.5,63.8,0,0,0,0
2022-05-09T00:03:00+09:00,2.2,���쓌,4.3,���쓌,10.5,64.1,0,0,0,0
2022-05-09T00:04:00+09:00,2.3,���쓌,4.3,���쓌,10.5,64.1,0,0,0,0
2022-05-09T00:05:00+09:00,2.2,���쓌,4.3,���쓌,10.5,64.2,0,0,0,0
2022-05-09T00:06:00+09:00,2.3,���쓌,4.3,���쓌,10.6,64.2,0,0,0,0
2022-05-09T00:07:00+09:00,2.1,���쓌,3.7,���쓌,10.7,64,0,0,0,0
2022-05-09T00:08:00+09:00,2.1,���쓌,3.7,���쓌,10.6,63.7,0,0,0,0
2022-05-09T00:09:00+09:00,2.1,���쓌,3.2,��,10.7,63.6,0,0,0,0
2022-05-09T00:10:00+09:00,2,���쓌,3.3,���쓌,10.8,63.4,0,0,0,0
2022-05-09T00:11:00+09:00,2,���쓌,3.3,���쓌,10.8,62.9,0,0,0,0
2022-05-09T00:12:00+09:00,2,���쓌,3.3,���쓌,10.6,62.8,0,0,0,0
2022-05-09T00:13:00+09:00,2,���쓌,3.3,���쓌,10.6,63,0,0,0,0
2022-05-09T00:14:00+09:00,2,���쓌,3.3,���쓌,10.6,63.4,0,0,0,0
2022-05-09T00:15:00+09:00,2.1,��,3.3,���쓌,10.5,63.3,0,0,0,0
2022-05-09T00:16:00+09:00,2.1,��,3.6,���k��,10.4,63.5,0,0,0,0
2022-05-09T00:17:00+09:00,2.1,��,3.6,���k��,10.3,63.9,0,0,0,0
2022-05-09T00:18:00+09:00,2.1,��,3.6,���k��,10.3,64.3,0,0,0,0
2022-05-09T00:19:00+09:00,2,��,3.6,���k��,10.2,64.4,0,0,0,0
2022-05-09T00:20:00+09:00,2,��,3.6,���k��,10.2,64.6,0,0,0,0
2022-05-09T00:21:00+09:00,2,��,3.6,���k��,10.2,64.9,0,0,0,0
2022-05-09T00:22:00+09:00,2,��,3.6,���k��,10.2,65.2,0,0,0,0
2022-05-09T00:23:00+09:00,2,��,3.6,���k��,10.1,65.2,0,0,0,0
2022-05-09T00:24:00+09:00,2.1,��,3.6,���k��,10.1,65.4,0,0,0,0
2022-05-09T00:25:00+09:00,2.1,��,3.6,���k��,10.1,65.6,0,0,0,0
2022-05-09T00:26:00+09:00,2.1,��,3.5,���쓌,10.1,65.8,0,0,0,0
2022-05-09T00:27:00+09:00,2.1,��,3.7,���쓌,10.2,65.8,0,0,0,0
2022-05-09T00:28:00+09:00,2.2,��,3.7,���쓌,10.2,65.7,0,0,0,0
2022-05-09T00:29:00+09:00,2.2,��,3.7,���쓌,10.3,65.5,0,0,0,0
2022-05-09T00:30:00+09:00,2.2,���쓌,3.7,���쓌,10.4,65.3,0,0,0,0
2022-05-09T00:31:00+09:00,2.2,���쓌,3.7,���쓌,10.4,65.2,0,0,0,0
2022-05-09T00:32:00+09:00,2.2,���쓌,3.7,���쓌,10.4,65.2,0,0,0,0
2022-05-09T00:33:00+09:00,2.1,���쓌,3.7,���쓌,10.4,65.1,0,0,0,0
2022-05-09T00:34:00+09:00,2,���쓌,3.7,���쓌,10.5,65,0,0,0,0
2022-05-09T00:35:00+09:00,1.9,���쓌,3.7,���쓌,10.5,64.8,0,0,0,0
2022-05-09T00:36:00+09:00,1.8,���쓌,3.7,���쓌,10.6,64.6,0,0,0,0
2022-05-09T00:37:00+09:00,1.8,���쓌,3.5,���쓌,10.7,64.4,0,0,0,0
2022-05-09T00:38:00+09:00,1.7,���쓌,3.5,���쓌,10.6,64.3,0,0,0,0
2022-05-09T00:39:00+09:00,1.6,���쓌,2.6,��,10.6,64.3,0,0,0,0
2022-05-09T00:40:00+09:00,1.6,���쓌,2.4,��,10.6,64.3,0,0,0,0
2022-05-09T00:41:00+09:00,1.6,���쓌,2.6,���쓌,10.5,64.4,0,0,0,0
2022-05-09T00:42:00+09:00,1.6,���쓌,2.6,���쓌,10.4,64.2,0,0,0,0
2022-05-09T00:43:00+09:00,1.7,���쓌,2.6,���쓌,10.3,64.5,0,0,0,0
2022-05-09T00:44:00+09:00,1.7,���쓌,2.6,���쓌,10.3,64.9,0,0,0,0
2022-05-09T00:45:00+09:00,1.6,���쓌,2.6,���쓌,10.1,65.2,0,0,0,0
2022-05-09T00:46:00+09:00,1.6,��,2.6,���쓌,10.1,65.5,0,0,0,0
2022-05-09T00:47:00+09:00,1.7,��,2.6,���쓌,10.1,65.8,0,0,0,0
2022-05-09T00:48:00+09:00,1.7,��,2.6,���쓌,10.1,66.1,0,0,0,0
2022-05-09T00:49:00+09:00,1.7,��,2.6,���쓌,10.1,66.5,0,0,0,0
2022-05-09T00:50:00+09:00,1.7,��,2.6,���쓌,10.2,66.5,0,0,0,0
2022-05-09T00:51:00+09:00,1.6,��,2.5,���쓌,10.2,66.4,0,0,0,0
2022-05-09T00:52:00+09:00,1.6,��,2.5,���쓌,10.1,66.3,0,0,0,0
2022-05-09T00:53:00+09:00,1.6,��,2.5,���쓌,10.2,66.4,0,0,0,0
2022-05-09T00:54:00+09:00,1.7,��,3.2,���쓌,10.3,66.1,0,0,0,0
2022-05-09T00:55:00+09:00,1.8,��,3.2,���쓌,10.3,65.7,0,0,0,0
2022-05-09T00:56:00+09:00,1.8,��,3.2,���쓌,10.3,65.5,0,0,0,0
2022-05-09T00:57:00+09:00,1.8,��,3.2,���쓌,10.3,65.3,0,0,0,0
2022-05-09T00:58:00+09:00,1.8,��,3.2,���쓌,10.4,65.3,0,0,0,0
2022-05-09T00:59:00+09:00,1.7,��,3.2,���쓌,10.3,65.4,0,0,0,0
2022-05-09T01:00:00+09:00,1.7,��,3.2,���쓌,10.2,65.9,0,0,0,0
2022-05-09T01:01:00+09:00,1.8,��,3.2,���쓌,10.2,66.1,0,0,0,0
2022-05-09T01:02:00+09:00,1.7,��,3.2,���쓌,10.2,66.3,0,0,0,0
2022-05-09T01:03:00+09:00,1.7,��,3.2,���쓌,10.2,66.6,0,0,0,0
2022-05-09T01:04:00+09:00,1.5,��,2.9,���쓌,10.1,66.8,0,0,0,0
2022-05-09T01:05:00+09:00,1.4,��,2.7,��,10.1,67.1,0,0,0,0
2022-05-09T01:06:00+09:00,1.3,��,2.6,���쓌,10.2,67,0,0,0,0
2022-05-09T01:07:00+09:00,1.2,��,2.4,��,10.1,67.2,0,0,0,0
2022-05-09T01:08:00+09:00,1.2,��,2.4,��,10.1,67.4,0,0,0,0
2022-05-09T01:09:00+09:00,1.2,��,2.4,��,10,67.6,0,0,0,0
2022-05-09T01:10:00+09:00,1.3,��,2.4,��,10,67.9,0,0,0,0
2022-05-09T01:11:00+09:00,1.2,��,2.4,���쓌,10,67.8,0,0,0,0
2022-05-09T01:12:00+09:00,1.2,��,2.4,���쓌,10,67.7,0,0,0,0
2022-05-09T01:13:00+09:00,1.2,��,2.4,���쓌,10,67.8,0,0,0,0
2022-05-09T01:14:00+09:00,1.2,��,2.4,���쓌,9.9,68.3,0,0,0,0
2022-05-09T01:15:00+09:00,1.2,��,2.4,���쓌,9.9,68.9,0,0,0,0
2022-05-09T01:16:00+09:00,1.2,��,2.4,���쓌,9.9,69.5,0,0,0,0
2022-05-09T01:17:00+09:00,1.2,��,2.4,���쓌,9.9,69.7,0,0,0,0
2022-05-09T01:18:00+09:00,1.1,��,2.4,���쓌,9.9,70.1,0,0,0,0
2022-05-09T01:19:00+09:00,1.1,��,2.4,���쓌,9.9,70.3,0,0,0,0
2022-05-09T01:20:00+09:00,1,��,1.7,���k��,10.1,70.3,0,0,0,0
2022-05-09T01:21:00+09:00,1,��,1.7,���k��,10,69.8,0,0,0,0
2022-05-09T01:22:00+09:00,1,��,1.7,���k��,10,69.5,0,0,0,0
2022-05-09T01:23:00+09:00,1,��,1.8,���k��,10,69.8,0,0,0,0
2022-05-09T01:24:00+09:00,1,��,1.8,���k��,10,69.8,0,0,0,0
2022-05-09T01:25:00+09:00,1,��,1.8,���k��,9.9,69.7,0,0,0,0
2022-05-09T01:26:00+09:00,1,��,1.8,���k��,10,69.8,0,0,0,0
2022-05-09T01:27:00+09:00,1,��,1.8,���k��,10,69.7,0,0,0,0
2022-05-09T01:28:00+09:00,1.1,��,2,���k��,10.1,69.6,0,0,0,0
2022-05-09T01:29:00+09:00,1.2,��,2.3,���k��,10,69.2,0,0,0,0
2022-05-09T01:30:00+09:00,1.3,��,2.7,��,10.1,69.1,0,0,0,0
2022-05-09T01:31:00+09:00,1.4,��,2.7,��,10,68.7,0,0,0,0
2022-05-09T01:32:00+09:00,1.5,��,2.7,��,9.9,68.6,0,0,0,0
2022-05-09T01:33:00+09:00,1.6,��,3,���쓌,9.9,69,0,0,0,0
2022-05-09T01:34:00+09:00,1.7,��,3,���쓌,9.9,69.5,0,0,0,0
2022-05-09T01:35:00+09:00,1.8,��,3,���쓌,9.9,69.7,0,0,0,0
2022-05-09T01:36:00+09:00,1.9,��,3,���쓌,9.8,69.8,0,0,0,0
2022-05-09T01:37:00+09:00,1.9,��,3,���쓌,9.9,69.9,0,0,0,0
2022-05-09T01:38:00+09:00,2,��,3.6,���k��,9.8,69.8,0,0,0,0
2022-05-09T01:39:00+09:00,2.1,��,3.6,���k��,9.8,69.9,0,0,0,0
2022-05-09T01:40:00+09:00,2.2,��,3.6,���k��,9.8,70.1,0,0,0,0
2022-05-09T01:41:00+09:00,2.2,��,3.6,���k��,9.8,70.2,0,0,0,0
2022-05-09T01:42:00+09:00,2.2,��,3.6,���k��,9.8,70.2,0,0,0,0
2022-05-09T01:43:00+09:00,2.2,��,3.6,���k��,9.8,69.9,0,0,0,0
2022-05-09T01:44:00+09:00,2.2,��,3.6,���k��,9.9,69.8,0,0,0,0
2022-05-09T01:45:00+09:00,2.1,��,3.6,���k��,9.9,69.6,0,0,0,0
2022-05-09T01:46:00+09:00,2.1,��,3.6,���k��,9.9,69.4,0,0,0,0
2022-05-09T01:47:00+09:00,2.2,��,3.6,���k��,10,69,0,0,0,0
2022-05-09T01:48:00+09:00,2.2,��,3.6,���쓌,10,68.7,0,0,0,0
2022-05-09T01:49:00+09:00,2.2,��,3.6,���쓌,10,68.7,0,0,0,0
2022-05-09T01:50:00+09:00,2.2,��,3.6,���쓌,10.1,68.8,0,0,0,0
2022-05-09T01:51:00+09:00,2.3,��,3.8,��,10.2,68.3,0,0,0,0
2022-05-09T01:52:00+09:00,2.4,��,3.8,��,10.3,67.5,0,0,0,0
2022-05-09T01:53:00+09:00,2.4,��,3.8,��,10.3,66.8,0,0,0,0
2022-05-09T01:54:00+09:00,2.4,��,3.8,��,10.2,66.7,0,0,0,0
2022-05-09T01:55:00+09:00,2.4,��,3.8,��,10.2,66.8,0,0,0,0
2022-05-09T01:56:00+09:00,2.3,��,3.8,��,10.2,67.1,0,0,0,0
2022-05-09T01:57:00+09:00,2.2,��,3.8,��,10.1,67.4,0,0,0,0
2022-05-09T01:58:00+09:00,2.1,��,3.8,��,10.1,67.7,0,0,0,0
2022-05-09T01:59:00+09:00,2.1,��,3.8,��,10.1,67.9,0,0,0,0
2022-05-09T02:00:00+09:00,2,��,3.8,��,10.2,68.1,0,0,0,0
2022-05-09T02:01:00+09:00,1.9,��,3.8,���쓌,10.1,68.3,0,0,0,0
2022-05-09T02:02:00+09:00,1.8,��,3.1,��,10.2,68.3,0,0,0,0
2022-05-09T02:03:00+09:00,1.8,��,3,��,10.2,68.3,0,0,0,0
2022-05-09T02:04:00+09:00,1.7,��,3,��,10.2,68.4,0,0,0,0
2022-05-09T02:05:00+09:00,1.7,��,3,��,10.1,68.5,0,0,0,0
2022-05-09T02:06:00+09:00,1.7,��,3,��,10.2,68.6,0,0,0,0
2022-05-09T02:07:00+09:00,1.7,��,3,��,10.2,68.6,0,0,0,0
2022-05-09T02:08:00+09:00,1.7,��,2.8,��,10.2,68.4,0,0,0,0
2022-05-09T02:09:00+09:00,1.7,��,2.8,��,10.2,68.2,0,0,0,0
2022-05-09T02:10:00+09:00,1.6,��,2.8,��,10.2,68.1,0,0,0,0
2022-05-09T02:11:00+09:00,1.6,��,2.7,��,10.3,67.8,0,0,0,0
2022-05-09T02:12:00+09:00,1.6,��,2.5,���쓌,10.3,67.6,0,0,0,0
2022-05-09T02:13:00+09:00,1.7,���쓌,2.5,���쓌,10.5,67.3,0,0,0,0
2022-05-09T02:14:00+09:00,1.7,���쓌,2.5,���쓌,10.5,66.9,0,0,0,0
2022-05-09T02:15:00+09:00,1.7,���쓌,2.5,���쓌,10.6,66.4,0,0,0,0
2022-05-09T02:16:00+09:00,1.6,���쓌,2.5,���쓌,10.7,66,0,0,0,0
2022-05-09T02:17:00+09:00,1.6,���쓌,2.5,���쓌,10.5,66,0,0,0,0
2022-05-09T02:18:00+09:00,1.6,��,2.5,���쓌,10.6,66.6,0,0,0,0
2022-05-09T02:19:00+09:00,1.6,��,2.5,���쓌,10.7,66.6,0,0,0,0
2022-05-09T02:20:00+09:00,1.6,��,2.5,���쓌,10.8,66.3,0,0,0,0
2022-05-09T02:21:00+09:00,1.5,��,2.4,�쓌,10.8,65.8,0,0,0,0
2022-05-09T02:22:00+09:00,1.4,��,2.4,�쓌,10.7,65.8,0,0,0,0
2022-05-09T02:23:00+09:00,1.3,��,2.4,�쓌,10.5,66.6,0,0,0,0
2022-05-09T02:24:00+09:00,1.2,��,2.2,���k��,10.6,67.6,0,0,0,0
2022-05-09T02:25:00+09:00,1.2,���k��,2.3,���쓌,10.6,68.4,0,0,0,0
2022-05-09T02:26:00+09:00,1.2,��,2.3,���쓌,10.7,68.3,0,0,0,0
2022-05-09T02:27:00+09:00,1.3,��,3.2,��,10.8,68,0,0,0,0
2022-05-09T02:28:00+09:00,1.3,��,3.2,��,11,67,0,0,0,0
2022-05-09T02:29:00+09:00,1.3,��,3.2,��,10.9,66.3,0,0,0,0
2022-05-09T02:30:00+09:00,1.3,��,3.2,��,10.8,66.1,0,0,0,0
2022-05-09T02:31:00+09:00,1.4,��,3.2,��,10.6,66.5,0,0,0,0
2022-05-09T02:32:00+09:00,1.5,��,3.2,��,10.5,66.4,0,0,0,0
2022-05-09T02:33:00+09:00,1.7,��,3.2,��,10.5,66.7,0,0,0,0
2022-05-09T02:34:00+09:00,1.7,��,3.2,��,10.5,67.2,0,0,0,0
2022-05-09T02:35:00+09:00,1.8,��,3.2,��,10.5,67.3,0,0,0,0
2022-05-09T02:36:00+09:00,1.8,��,3.2,��,10.6,67.3,0,0,0,0
2022-05-09T02:37:00+09:00,1.8,��,3.7,���쓌,10.6,67.2,0,0,0,0
2022-05-09T02:38:00+09:00,1.9,��,3.7,���쓌,10.6,67.2,0,0,0,0
2022-05-09T02:39:00+09:00,2,��,3.7,���쓌,10.7,67.2,0,0,0,0
2022-05-09T02:40:00+09:00,1.9,��,3.7,���쓌,10.8,67,0,0,0,0
2022-05-09T02:41:00+09:00,1.9,���쓌,3.7,���쓌,10.9,66.5,0,0,0,0
2022-05-09T02:42:00+09:00,2,���쓌,4,�쓌,10.9,65.9,0,0,0,0
2022-05-09T02:43:00+09:00,2.1,���쓌,4,�쓌,11,65.8,0,0,0,0
2022-05-09T02:44:00+09:00,2.1,���쓌,4,�쓌,11.1,65.5,0,0,0,0
2022-05-09T02:45:00+09:00,2,���쓌,4,�쓌,11.3,65.2,0,0,0,0
2022-05-09T02:46:00+09:00,2,���쓌,4,�쓌,11.4,64,0,0,0,0
2022-05-09T02:47:00+09:00,1.9,���쓌,4,�쓌,11.4,63,0,0,0,0
2022-05-09T02:48:00+09:00,1.8,��,4,�쓌,11.4,63.2,0,0,0,0
2022-05-09T02:49:00+09:00,1.9,��,4,�쓌,11.5,63.2,0,0,0,0
2022-05-09T02:50:00+09:00,2,���쓌,4,�쓌,11.5,62.9,0,0,0,0
2022-05-09T02:51:00+09:00,2.2,���쓌,4.3,�쓌,11.5,62.9,0,0,0,0
2022-05-09T02:52:00+09:00,2.1,���쓌,4.3,�쓌,11.5,62.7,0,0,0,0
2022-05-09T02:53:00+09:00,2,���쓌,4.3,�쓌,11.6,62.5,0,0,0,0
2022-05-09T02:54:00+09:00,2,���쓌,4.3,�쓌,11.6,62.7,0,0,0,0
2022-05-09T02:55:00+09:00,2,���쓌,4.3,�쓌,11.7,62.4,0,0,0,0
2022-05-09T02:56:00+09:00,2,���쓌,4.3,�쓌,11.7,62.2,0,0,0,0
2022-05-09T02:57:00+09:00,2,���쓌,4.3,�쓌,11.6,62.2,0,0,0,0
2022-05-09T02:58:00+09:00,2.1,���쓌,4.3,�쓌,11.6,62.3,0,0,0,0
2022-05-09T02:59:00+09:00,2.1,���쓌,4.3,�쓌,11.6,62.2,0,0,0,0
2022-05-09T03:00:00+09:00,2,�쓌,4.3,�쓌,11.7,62.2,0,0,0,0
2022-05-09T03:01:00+09:00,1.7,�쓌,3.4,���쓌,11.7,62.7,0,0,0,0
2022-05-09T03:02:00+09:00,1.6,���쓌,3.4,���쓌,11.7,63,0,0,0,0
2022-05-09T03:03:00+09:00,1.6,���쓌,3.4,���쓌,11.7,63.2,0,0,0,0
2022-05-09T03:04:00+09:00,1.7,���쓌,3.4,���쓌,11.7,63,0,0,0,0
2022-05-09T03:05:00+09:00,1.8,���쓌,3.4,���쓌,11.6,63,0,0,0,0
2022-05-09T03:06:00+09:00,1.8,���쓌,3.4,���쓌,11.5,63.5,0,0,0,0
2022-05-09T03:07:00+09:00,1.8,���쓌,3.4,���쓌,11.4,64.2,0,0,0,0
2022-05-09T03:08:00+09:00,1.7,���쓌,3.4,���쓌,11.2,65,0,0,0,0
2022-05-09T03:09:00+09:00,1.7,��,3,���쓌,11.1,65.2,0,0,0,0
2022-05-09T03:10:00+09:00,1.7,��,3,���쓌,11,65.9,0,0,0,0
2022-05-09T03:11:00+09:00,1.8,��,3,���쓌,10.9,66.5,0,0,0,0
2022-05-09T03:12:00+09:00,1.9,��,3,���쓌,10.8,67.1,0,0,0,0
2022-05-09T03:13:00+09:00,2,��,3.3,���k��,10.8,67.3,0,0,0,0
2022-05-09T03:14:00+09:00,2,��,3.3,���k��,10.8,67.6,0,0,0,0
2022-05-09T03:15:00+09:00,2,���k��,3.3,���k��,10.8,67.5,0,0,0,0
2022-05-09T03:16:00+09:00,1.9,���k��,3.3,���k��,10.8,67.6,0,0,0,0
2022-05-09T03:17:00+09:00,1.9,���k��,3.3,���k��,10.8,67.7,0,0,0,0
2022-05-09T03:18:00+09:00,1.9,���k��,3.3,���k��,10.7,67.9,0,0,0,0
2022-05-09T03:19:00+09:00,1.9,���k��,3.3,���k��,10.7,68.1,0,0,0,0
2022-05-09T03:20:00+09:00,1.9,��,3.3,���k��,10.8,68.2,0,0,0,0
2022-05-09T03:21:00+09:00,2,��,3.3,���k��,10.8,68.1,0,0,0,0
2022-05-09T03:22:00+09:00,2,��,3.3,���k��,10.8,67.9,0,0,0,0
2022-05-09T03:23:00+09:00,1.9,��,3.2,���k��,10.9,67.6,0,0,0,0
2022-05-09T03:24:00+09:00,1.9,��,3.1,���k��,10.9,67.2,0,0,0,0
2022-05-09T03:25:00+09:00,1.9,��,3.1,���k��,10.9,67,0,0,0,0
2022-05-09T03:26:00+09:00,1.9,��,3.1,���k��,10.9,67,0,0,0,0
2022-05-09T03:27:00+09:00,1.9,��,3.1,���k��,10.9,66.9,0,0,0,0
2022-05-09T03:28:00+09:00,1.9,��,3.1,���k��,11,66.8,0,0,0,0
2022-05-09T03:29:00+09:00,1.8,��,3.1,���k��,11,66.6,0,0,0,0
2022-05-09T03:30:00+09:00,1.8,��,3.1,���k��,11.1,66.2,0,0,0,0
2022-05-09T03:31:00+09:00,1.8,��,3.1,���k��,11.1,65.9,0,0,0,0
2022-05-09T03:32:00+09:00,1.8,���k��,3.1,���k��,11.1,65.9,0,0,0,0
2022-05-09T03:33:00+09:00,1.7,���k��,3.1,���k��,11.1,66,0,0,0,0
2022-05-09T03:34:00+09:00,1.7,��,3,���k��,11.1,66.1,0,0,0,0
2022-05-09T03:35:00+09:00,1.6,��,3,���k��,11.2,66.1,0,0,0,0
2022-05-09T03:36:00+09:00,1.6,��,2.5,��,11.2,65.7,0,0,0,0
2022-05-09T03:37:00+09:00,1.6,��,2.5,��,11.3,65.4,0,0,0,0
2022-05-09T03:38:00+09:00,1.6,��,2.6,���k��,11.3,65.2,0,0,0,0
2022-05-09T03:39:00+09:00,1.6,��,2.6,���k��,11.3,65.1,0,0,0,0
2022-05-09T03:40:00+09:00,1.6,���k��,2.6,���k��,11.3,65.1,0,0,0,0
2022-05-09T03:41:00+09:00,1.5,���k��,2.6,���k��,11.3,65.3,0,0,0,0
2022-05-09T03:42:00+09:00,1.5,���k��,2.6,���k��,11.2,65.7,0,0,0,0
2022-05-09T03:43:00+09:00,1.5,���k��,2.6,���k��,11.2,65.6,0,0,0,0
2022-05-09T03:44:00+09:00,1.5,���k��,2.6,���k��,11.2,65.3,0,0,0,0
2022-05-09T03:45:00+09:00,1.5,���k��,2.6,���k��,11.2,65.5,0,0,0,0
2022-05-09T03:46:00+09:00,1.5,���k��,2.6,���k��,11.2,65.4,0,0,0,0
2022-05-09T03:47:00+09:00,1.6,���k��,2.7,���k��,11.2,65.5,0,0,0,0
2022-05-09T03:48:00+09:00,1.6,���k��,2.7,���k��,11.2,65.6,0,0,0,0
2022-05-09T03:49:00+09:00,1.6,���k��,2.7,���k��,11.2,65.7,0,0,0,0
2022-05-09T03:50:00+09:00,1.6,���k��,2.7,���k��,11.2,66,0,0,0,0
2022-05-09T03:51:00+09:00,1.6,���k��,2.7,���k��,11.2,66.5,0,0,0,0
2022-05-09T03:52:00+09:00,1.6,���k��,2.7,���k��,11.3,66.5,0,0,0,0
2022-05-09T03:53:00+09:00,1.6,���k��,2.7,���k��,11.3,66.4,0,0,0,0
2022-05-09T03:54:00+09:00,1.6,���k��,2.7,���k��,11.4,66.2,0,0,0,0
2022-05-09T03:55:00+09:00,1.6,���k��,2.9,�k��,11.3,65.6,0,0,0,0
2022-05-09T03:56:00+09:00,1.7,���k��,2.9,�k��,11.2,65.6,0,0,0,0
2022-05-09T03:57:00+09:00,1.6,���k��,2.9,�k��,11.2,66,0,0,0,0
2022-05-09T03:58:00+09:00,1.6,���k��,2.9,�k��,11.3,66.2,0,0,0,0
2022-05-09T03:59:00+09:00,1.5,���k��,2.9,�k��,11.5,65.8,0,0,0,0
2022-05-09T04:00:00+09:00,1.5,���k��,2.9,�k��,11.5,64.8,0,0,0,0
2022-05-09T04:01:00+09:00,1.6,���k��,2.9,�k��,11.3,64.2,0,0,0,0
2022-05-09T04:02:00+09:00,1.7,���k��,2.9,�k��,11.3,64.9,0,0,0,0
2022-05-09T04:03:00+09:00,1.8,���k��,3,�k��,11.2,65.6,0,0,0,0
2022-05-09T04:04:00+09:00,1.9,���k��,3.4,���k��,11.3,65.7,0,0,0,0
2022-05-09T04:05:00+09:00,1.9,���k��,3.4,���k��,11.4,65.7,0,0,0,0
2022-05-09T04:06:00+09:00,2,���k��,4.5,���k��,11.3,65.2,0,0,0,0
2022-05-09T04:07:00+09:00,2.1,���k��,4.5,���k��,11.4,65.3,0,0,0,0
2022-05-09T04:08:00+09:00,2.3,���k��,4.5,���k��,11.5,64.9,0,0,0,0
2022-05-09T04:09:00+09:00,2.4,���k��,4.5,���k��,11.4,64.5,0,0,0,0
2022-05-09T04:10:00+09:00,2.5,���k��,4.5,���k��,11.3,64.7,0,0,0,0
2022-05-09T04:11:00+09:00,2.6,���k��,4.5,���k��,11.4,65.1,0,0,0,0
2022-05-09T04:12:00+09:00,2.6,���k��,4.5,���k��,11.6,64.3,0,0,0,0
2022-05-09T04:13:00+09:00,2.5,���k��,4.5,���k��,11.7,63.2,0,0,0,0
2022-05-09T04:14:00+09:00,2.4,���k��,4.5,���k��,11.8,62.4,0,0,0,0
2022-05-09T04:15:00+09:00,2.4,��,4.5,���k��,11.8,62.1,0,0,0,0
2022-05-09T04:16:00+09:00,2.4,��,4.2,��,11.8,61.6,0,0,0,0
2022-05-09T04:17:00+09:00,2.3,��,4.2,��,11.8,61.3,0,0,0,0
2022-05-09T04:18:00+09:00,2.2,��,4.2,��,11.8,61.4,0,0,0,0
2022-05-09T04:19:00+09:00,2.2,��,4.2,��,11.9,61.3,0,0,0,0
2022-05-09T04:20:00+09:00,2.1,��,4,���쓌,11.9,61.1,0,0,0,0
2022-05-09T04:21:00+09:00,2,��,4,���쓌,11.8,61.1,0,0,0,0
2022-05-09T04:22:00+09:00,2.1,��,4,���쓌,11.9,60.8,0,0,0,0
2022-05-09T04:23:00+09:00,2.1,��,4,���k��,11.9,60.3,0,0,0,0
2022-05-09T04:24:00+09:00,2.1,���k��,4,���k��,11.9,60.5,0,0,0,0
2022-05-09T04:25:00+09:00,2,���k��,4,���k��,11.9,60.5,0,0,0,0
2022-05-09T04:26:00+09:00,1.9,���k��,4,���k��,11.9,60.8,0,0,0,0
2022-05-09T04:27:00+09:00,1.9,���k��,4,���k��,11.9,61,0,0,0,0
2022-05-09T04:28:00+09:00,1.9,��,4,���k��,11.9,61.1,0,0,0,0
2022-05-09T04:29:00+09:00,1.9,��,4,���k��,11.9,61.2,0,0,0,0
2022-05-09T04:30:00+09:00,1.9,��,4,���k��,11.9,61.1,0,0,0,0
2022-05-09T04:31:00+09:00,1.9,��,4,���k��,11.9,61.2,0,0,0,0
2022-05-09T04:32:00+09:00,1.9,��,3.5,��,11.8,61.2,0,0,0,0
2022-05-09T04:33:00+09:00,1.9,��,3.5,��,11.8,61.4,0,0,0,0
2022-05-09T04:34:00+09:00,1.9,��,3.5,��,11.9,61.1,0,0,0,0
2022-05-09T04:35:00+09:00,2,���k��,3.5,��,11.8,61.1,0,0,0,0
2022-05-09T04:36:00+09:00,2,���k��,3.5,��,11.8,61.2,0,0,0,0
2022-05-09T04:37:00+09:00,1.9,���k��,3.5,��,11.9,61.1,0,0,0,0
2022-05-09T04:38:00+09:00,1.9,���k��,3.5,��,11.8,61.3,0,0,0,0
2022-05-09T04:39:00+09:00,1.8,���k��,3.5,�k��,11.8,61.7,0,0,0,0
2022-05-09T04:40:00+09:00,1.8,���k��,3.5,�k��,11.9,61.8,0,0,0,0
2022-05-09T04:41:00+09:00,1.7,���k��,3.5,�k��,11.9,61.5,0,0,0,0
2022-05-09T04:42:00+09:00,1.7,���k��,3.5,�k��,11.9,61.5,0,0,0,0
2022-05-09T04:43:00+09:00,1.7,���k��,3.5,��,12,61.3,0,0,0,0
2022-05-09T04:44:00+09:00,1.8,���k��,4.4,���쓌,12,60.9,0,0,0,0
2022-05-09T04:45:00+09:00,1.9,��,4.4,���쓌,12.1,60.5,0,0,0,0
2022-05-09T04:46:00+09:00,2,��,4.9,���쓌,12.1,60.3,0,0,0,0
2022-05-09T04:47:00+09:00,2.2,��,5.1,���쓌,12.2,60.1,0,0,0,0
2022-05-09T04:48:00+09:00,2.3,��,5.1,���쓌,12.2,59.9,0,0,0,0
2022-05-09T04:49:00+09:00,2.4,��,5.1,���쓌,12.2,59.7,0,0,0,0
2022-05-09T04:50:00+09:00,2.4,��,5.1,���쓌,12.2,59.6,0,0,0,0
2022-05-09T04:51:00+09:00,2.6,��,5.1,���쓌,12.2,60,0,0,0,0
2022-05-09T04:52:00+09:00,2.5,��,5.1,���쓌,12.2,60.2,0,0,0,0
2022-05-09T04:53:00+09:00,2.5,��,5.1,���쓌,12.2,60.3,0,0,0,0
2022-05-09T04:54:00+09:00,2.4,��,5.1,���쓌,12.2,60.3,0,0,0,0
2022-05-09T04:55:00+09:00,2.4,��,5.1,���쓌,12.1,60.5,0,0,0,0
2022-05-09T04:56:00+09:00,2.2,��,5.1,���쓌,12.1,60.9,0,0,0,0
2022-05-09T04:57:00+09:00,2.1,��,4,���쓌,12.1,61.2,0,0,0,0
2022-05-09T04:58:00+09:00,2,���쓌,3.8,���쓌,12.1,61.3,0,0,0,0
2022-05-09T04:59:00+09:00,2,���쓌,3.8,���쓌,12.2,61.2,0,0,0,0
2022-05-09T05:00:00+09:00,2,���쓌,3.8,���쓌,12.2,60.8,0,0,0,0
2022-05-09T05:01:00+09:00,2,���쓌,3.3,���쓌,12.2,60.6,0,0,0,0
2022-05-09T05:02:00+09:00,2,���쓌,3.3,���쓌,12.3,60.5,0,0,0,0
2022-05-09T05:03:00+09:00,2,���쓌,3.3,���쓌,12.3,60.5,0,0,0,0
2022-05-09T05:04:00+09:00,1.9,���쓌,3.3,���쓌,12.3,60.4,0,0,0,0
2022-05-09T05:05:00+09:00,1.9,���쓌,3.3,���쓌,12.3,60.4,0,0,0,0
2022-05-09T05:06:00+09:00,1.9,��,3.3,���쓌,12.3,60.5,0,0,0,0
2022-05-09T05:07:00+09:00,1.8,��,3.3,���쓌,12.3,60.5,0,0,0,0
2022-05-09T05:08:00+09:00,1.7,��,3.3,���쓌,12.2,61,0,0,0,0
2022-05-09T05:09:00+09:00,1.6,��,3.3,���쓌,12.1,61.9,0,0,0,0
2022-05-09T05:10:00+09:00,1.5,��,3.2,���쓌,12,62.4,0,0,0,0
2022-05-09T05:11:00+09:00,1.5,���k��,2.6,��,12,62.5,0,0,0,0
2022-05-09T05:12:00+09:00,1.4,���k��,2.5,�k��,12,62.7,0,0,0,0
2022-05-09T05:13:00+09:00,1.4,���k��,3,���k��,12,62.6,0,0,0,0
2022-05-09T05:14:00+09:00,1.5,���k��,3,���k��,12,62.6,0,0,0,0
2022-05-09T05:15:00+09:00,1.6,���k��,3,���k��,12.1,62.4,0,0,0,0
2022-05-09T05:16:00+09:00,1.6,���k��,3.6,���k��,12.1,62,0,0,0,0
2022-05-09T05:17:00+09:00,1.7,���k��,3.6,���k��,12.1,61.4,0,0,0,0
2022-05-09T05:18:00+09:00,1.8,���k��,3.6,���k��,12.1,61.1,0,0,0,0
2022-05-09T05:19:00+09:00,1.9,���k��,3.6,���k��,12.1,61,0,0,0,0
2022-05-09T05:20:00+09:00,1.9,���k��,3.6,���k��,12.1,60.8,0,0,0,0
2022-05-09T05:21:00+09:00,1.9,���k��,3.6,���k��,12.1,61.1,0,0,0,0
2022-05-09T05:22:00+09:00,1.9,���k��,3.6,���k��,12.1,61.2,0,0,0,0
2022-05-09T05:23:00+09:00,1.9,���k��,3.6,���k��,12.1,61.4,0,0,0,0
2022-05-09T05:24:00+09:00,1.7,���k��,3.6,���k��,12.1,61.4,0,0,0,0
2022-05-09T05:25:00+09:00,1.7,���k��,3.6,���k��,12.1,61.5,0,0,0,0
2022-05-09T05:26:00+09:00,1.5,���k��,3.1,���쓌,12.1,61.5,0,0,0,0
2022-05-09T05:27:00+09:00,1.5,���k��,3.1,���쓌,12.1,61.7,0,0,0,0
2022-05-09T05:28:00+09:00,1.5,���k��,3.1,���쓌,12.1,61.8,0,0,0,0
2022-05-09T05:29:00+09:00,1.5,���k��,3.1,���쓌,12.1,61.8,0,0,0,0
2022-05-09T05:30:00+09:00,1.5,���k��,3.1,���쓌,12.2,61.8,0,0,0,0
2022-05-09T05:31:00+09:00,1.4,���k��,2.6,���k��,12.2,61.8,0,0,0,0
2022-05-09T05:32:00+09:00,1.4,���k��,2.5,���k��,12.1,61.8,0,0,0,0
2022-05-09T05:33:00+09:00,1.3,���k��,2.4,�k��,12.2,61.7,0,0,0,0
2022-05-09T05:34:00+09:00,1.3,���k��,2.4,�k��,12.3,61.6,0,0,0,0
2022-05-09T05:35:00+09:00,1.3,��,2.4,�k��,12.3,61,0,0,0,0
2022-05-09T05:36:00+09:00,1.4,��,2.9,���쓌,12.3,60.8,0,0,0,0
2022-05-09T05:37:00+09:00,1.5,��,3.4,���쓌,12.3,60.4,0,0,0,0
2022-05-09T05:38:00+09:00,1.5,��,3.4,���쓌,12.4,60.3,0,0,0,0
2022-05-09T05:39:00+09:00,1.6,��,3.4,���쓌,12.4,60,0,0,0,0
2022-05-09T05:40:00+09:00,1.7,��,3.4,���쓌,12.4,59.8,0,0,0,0
2022-05-09T05:41:00+09:00,1.8,��,3.4,���쓌,12.4,59.7,0,0,0,0
2022-05-09T05:42:00+09:00,1.8,��,3.4,���쓌,12.4,59.7,0,0,0,0
2022-05-09T05:43:00+09:00,1.8,��,3.4,���쓌,12.3,59.5,0,0,0,0
2022-05-09T05:44:00+09:00,1.8,��,3.4,���쓌,12.3,59.9,0,0,0,0
2022-05-09T05:45:00+09:00,1.9,��,3.4,���쓌,12.3,59.9,0,0,0,0
2022-05-09T05:46:00+09:00,1.8,��,3.4,���쓌,12.3,59.7,0,0,0,0
2022-05-09T05:47:00+09:00,1.7,��,3.4,���쓌,12.4,59.8,0,0,0,0
2022-05-09T05:48:00+09:00,1.7,��,3.4,���쓌,12.4,59.7,0,0,0,0
2022-05-09T05:49:00+09:00,1.7,��,3.4,���쓌,12.4,59.5,0,0,0,0
2022-05-09T05:50:00+09:00,1.7,��,3.4,���쓌,12.4,59.3,0,0,0,0
2022-05-09T05:51:00+09:00,1.7,��,3,���k��,12.4,59.3,0,0,0,0
2022-05-09T05:52:00+09:00,1.8,��,4.6,��,12.4,59.4,0,0,0,0
2022-05-09T05:53:00+09:00,1.9,��,4.6,��,12.4,59.1,0,0,0,0
2022-05-09T05:54:00+09:00,2.1,��,5.2,���쓌,12.4,59,0,0,0,0
2022-05-09T05:55:00+09:00,2.3,��,5.6,���쓌,12.4,59.1,0,0,0,0
2022-05-09T05:56:00+09:00,2.4,��,5.6,���쓌,12.4,59,0,0,0,0
2022-05-09T05:57:00+09:00,2.5,��,5.6,���쓌,12.4,58.9,0,0,0,0
2022-05-09T05:58:00+09:00,2.5,��,5.6,���쓌,12.4,58.9,0,0,0,0
2022-05-09T05:59:00+09:00,2.4,��,5.6,���쓌,12.4,59.1,0,0,0,0
2022-05-09T06:00:00+09:00,2.4,���k��,5.6,���쓌,12.4,59.4,0,0,0,0
2022-05-09T06:01:00+09:00,2.3,���k��,5.6,���쓌,12.4,59.9,0,0,0,0
2022-05-09T06:02:00+09:00,2.3,���k��,5.6,���쓌,12.3,60,0,0,0,0
2022-05-09T06:03:00+09:00,2.2,���k��,5.6,���쓌,12.3,59.7,0,0,0,0
2022-05-09T06:04:00+09:00,2.1,���k��,5.6,���쓌,12.3,60.2,0,0,0,0
2022-05-09T06:05:00+09:00,2,���k��,3.8,�k��,12.3,60.2,0,0,0,0
2022-05-09T06:06:00+09:00,1.9,�k��,3.8,�k��,12.3,60.5,0,0,0,0
2022-05-09T06:07:00+09:00,1.8,�k��,3.8,�k��,12.3,60.7,0,0,0,0
2022-05-09T06:08:00+09:00,1.8,�k��,3.8,�k��,12.3,60.8,0,0,0,0
2022-05-09T06:09:00+09:00,1.9,�k��,3.8,�k��,12.3,60.8,0,0,0,0
2022-05-09T06:10:00+09:00,2,�k��,3.8,�k��,12.4,60.4,0,0,0,0
2022-05-09T06:11:00+09:00,2,�k��,3.8,�k��,12.4,59.9,0,0,0,0
2022-05-09T06:12:00+09:00,1.9,���k��,3.1,���k��,12.4,59.7,0,0,0,0
2022-05-09T06:13:00+09:00,1.9,���k��,3.1,���k��,12.4,59.7,0,0,0,0
2022-05-09T06:14:00+09:00,1.8,���k��,3.1,���k��,12.3,59.9,0,0,0,0
2022-05-09T06:15:00+09:00,1.7,���k��,3.1,���k��,12.4,60.4,0,0,0,0
2022-05-09T06:16:00+09:00,1.7,���k��,3.1,���k��,12.4,60.4,0,0,0,0
2022-05-09T06:17:00+09:00,1.6,���k��,3.1,���k��,12.4,60.5,0,0,0,0
2022-05-09T06:18:00+09:00,1.6,���k��,3.1,���k��,12.4,60.5,0,0,0,0
2022-05-09T06:19:00+09:00,1.5,���k��,3.1,���k��,12.4,60.3,0,0,0,0
2022-05-09T06:20:00+09:00,1.4,��,3.1,���k��,12.5,60.2,0,0,0,0
2022-05-09T06:21:00+09:00,1.3,��,2.7,���k��,12.5,60,0,0,0,0
2022-05-09T06:22:00+09:00,1.3,��,2.5,��,12.5,60,0,0,0,0
2022-05-09T06:23:00+09:00,1.3,��,2.8,���k��,12.5,59.9,0,0,0,0
2022-05-09T06:24:00+09:00,1.3,��,2.8,���k��,12.5,59.6,0,0,0,0
2022-05-09T06:25:00+09:00,1.3,��,2.8,���k��,12.5,59.8,0,0,0,0
2022-05-09T06:26:00+09:00,1.3,��,2.8,���k��,12.4,59.9,0,0,0,0
2022-05-09T06:27:00+09:00,1.3,��,2.8,���k��,12.5,60.1,0,0,0,0
2022-05-09T06:28:00+09:00,1.3,��,2.8,���k��,12.5,60.4,0,0,0,0
2022-05-09T06:29:00+09:00,1.3,��,2.8,���k��,12.5,60.4,0,0,0,0
2022-05-09T06:30:00+09:00,1.3,��,2.8,���k��,12.6,60.3,0,0,0,0
2022-05-09T06:31:00+09:00,1.3,��,2.8,���k��,12.5,60.1,0,0,0,0
2022-05-09T06:32:00+09:00,1.3,���k��,2.8,���k��,12.5,60.3,0,0,0,0